Dewpoint
32 27 25 25 23 22 23 21 20 19 18 18 23 22 16 17 17 17 17 17 17 16 15 15 15 15 15 15 16 16 17 18 17 17 19 19 20 21 22 23 25 25 26 36 34 35 36 37 34 38 39 36 33 30 29 29 34 37 37 40 40 41 41 43 45 48 49 49 49 49 49 48 48 48 48 47 47 46 45 44 44 43 41 40 39 38
26 26 27 25 22 21 21 21 21 20 19 19 20 22 18 23 18 17 17 18 18 18 17 16 16 17 17 17 17 18 18 17 17 18 19 18 19 20 24 25 26 27 33 36 33 31 33 33 38 36 36 38 33 32 29 30 32 35 37 38 40 40 39 40 42 45 47 48 48 48 48 47 47 46 45 45 45 44 44 43 43 42 41 39 38 36
26 25 25 24 23 20 19 19 19 19 21 21 20 20 22 19 21 20 19 19 19 18 15 16 17 18 18 18 18 18 18 19 19 20 20 19 22 24 25 25 27 27 29 28 27 33 27 35 35 35 35 35 35 35 33 34 34 34 36 38 39 39 39 39 40 43 45 47 48 47 46 46 45 44 45 45 44 43 42 42 42 41 41 39 38 37
26 27 24 23 24 22 21 20 19 21 23 21 21 21 19 23 22 18 19 19 19 18 18 19 18 17 18 18 19 20 19 20 22 22 24 28 26 24 23 26 27 25 28 29 25 25 27 30 28 31 32 34 38 36 35 35 35 33 33 35 38 38 39 39 39 41 44 45 46 46 44 43 44 42 42 42 41 41 41 41 40 40 39 39 38 36
24 24 25 24 25 22 22 22 22 20 19 26 26 24 21 23 22 21 17 21 20 19 24 20 21 20 21 17 16 17 21 21 21 21 23 25 30 29 32 30 29 24 26 27 25 27 27 27 30 31 33 35 36 36 35 36 34 32 34 35 37 37 38 38 39 40 41 43 43 43 43 41 42 40 39 39 39 40 40 39 38 38 38 38 38 37
26 26 29 26 28 24 26 22 25 27 21 23 29 25 22 22 20 21 23 23 20 20 21 25 17 20 20 18 19 20 19 19 20 22 21 23 25 26 25 27 30 35 29 28 27 29 29 29 30 31 32 33 34 33 35 36 35 34 35 35 36 37 37 37 39 39 39 39 40 40 40 39 38 38 38 37 38 38 37 37 38 37 36 37 37 37
26 27 29 28 30 31 28 26 29 28 22 23 21 29 24 22 24 26 25 24 18 19 22 22 17 19 20 19 19 19 19 18 19 23 22 22 22 23 26 27 26 25 27 29 28 28 28 29 30 30 31 32 32 32 35 36 36 35 35 36 36 36 36 39 38 39 38 39 39 39 39 39 38 37 38 37 37 36 36 37 36 36 36 36 36 36
26 24 28 30 28 30 28 23 28 24 24 21 32 29 30 28 27 27 25 25 20 25 28 24 21 18 20 20 21 19 18 18 19 19 20 20 20 23 24 25 26 26 26 28 28 28 29 29 29 30 31 30 31 33 34 35 35 36 36 36 36 35 35 37 38 38 38 37 38 39 39 38 37 37 36 36 34 35 34 34 35 34 34 35 35 35
24 28 29 29 28 27 25 26 34 27 24 26 29 30 28 27 27 26 25 22 22 18 19 22 26 18 21 21 18 18 18 19 19 17 19 20 22 23 24 24 24 26 27 26 28 28 28 29 30 30 31 31 32 33 33 34 35 35 36 35 35 35 35 36 37 37 38 37 37 38 37 37 37 37 37 36 35 33 34 34 34 33 33 34 34 34
23 28 29 31 28 24 30 24 29 30 24 29 30 30 29 29 28 26 20 20 19 17 21 20 23 20 21 25 18 19 18 18 18 16 18 20 22 24 25 25 25 25 28 29 27 28 29 30 30 31 30 30 31 32 33 33 33 34 34 33 33 33 34 35 36 36 37 38 36 37 37 38 37 36 35 35 34 34 34 33 33 33 32 32 33 33
25 28 27 28 27 27 25 26 30 30 30 31 32 28 26 25 22 21 20 19 21 19 22 23 23 21 19 22 23 22 24 17 16 16 18 20 21 22 24 25 26 26 28 28 28 28 29 29 29 29 29 29 30 31 31 32 32 33 32 32 31 32 32 33 35 36 36 37 37 36 37 38 38 38 37 35 34 34 34 33 33 32 32 31 31 32
27 26 27 29 30 26 27 29 29 29 30 31 23 20 22 23 17 20 21 21 20 20 21 22 24 23 19 19 22 18 17 16 15 15 17 17 21 24 26 26 26 26 27 27 28 28 28 28 28 28 28 28 28 29 29 31 32 32 31 31 30 30 31 32 33 35 36 35 37 37 37 37 37 36 37 36 35 34 34 34 32 32 31 31 32 31
27 28 30 31 34 23 28 23 25 29 29 26 22 21 20 21 21 21 19 20 18 21 21 17 21 17 18 19 18 18 18 18 18 18 19 18 22 25 26 27 27 28 27 27 27 27 27 27 27 27 27 28 28 28 29 29 31 31 30 30 29 29 30 30 31 33 34 35 35 35 36 36 35 35 36 35 35 35 34 33 33 32 31 31 32 30
29 32 29 30 28 28 27 21 22 22 23 23 20 23 21 20 21 20 21 19 17 23 16 16 21 18 19 19 20 19 19 18 19 21 24 23 25 26 26 27 26 27 27 27 27 27 27 26 27 27 27 27 27 27 28 29 29 29 29 29 29 29 29 29 30 30 31 32 34 34 34 34 34 34 34 34 33 34 33 33 32 32 32 31 31 31
25 25 29 29 27 31 25 25 27 30 25 22 26 23 24 23 21 20 20 19 19 22 20 18 22 23 24 21 20 18 19 19 19 23 27 28 28 28 27 27 26 26 26 27 26 26 26 27 26 27 27 27 27 27 27 27 28 28 28 28 28 28 29 29 30 30 30 30 31 31 32 33 32 33 32 32 34 32 33 32 32 32 32 31 32 31
27 26 32 32 32 29 28 32 34 30 26 25 27 25 22 22 25 22 23 23 24 23 23 21 22 23 22 25 24 23 20 22 25 26 27 27 27 28 27 27 26 26 26 27 26 26 26 26 26 26 26 26 26 26 26 26 27 28 28 27 28 28 28 28 29 29 29 29 29 30 31 31 32 31 32 32 32 31 32 32 32 31 32 32 31 32
25 23 31 31 29 26 28 29 27 31 23 24 24 22 24 30 25 22 24 26 28 25 22 25 23 24 23 22 22 21 20 22 25 26 26 27 27 27 27 27 26 26 26 26 26 26 26 26 26 27 26 25 25 26 26 26 26 26 26 26 26 26 27 28 28 28 29 29 30 30 30 30 31 31 32 31 32 32 32 32 32 31 31 32 32 33
27 27 32 30 28 28 28 29 31 33 30 24 21 25 30 32 27 23 20 21 21 21 23 24 23 21 21 20 20 17 19 23 25 25 26 27 27 26 26 26 26 26 25 25 25 25 25 25 25 26 26 25 25 25 25 25 26 25 26 25 25 25 25 27 27 28 28 28 30 30 29 29 29 29 30 31 30 31 31 31 31 31 31 31 32 32
32 26 30 33 31 30 30 30 25 32 32 26 26 33 24 22 21 20 21 19 20 20 21 21 21 22 22 21 21 20 20 23 26 26 25 25 25 26 25 25 25 25 24 24 23 23 24 24 25 25 25 25 25 25 25 26 26 25 24 24 24 24 25 26 28 27 28 28 30 30 29 29 29 29 29 29 30 30 30 30 30 30 30 31 32 31
32 27 28 33 31 29 28 27 23 23 30 31 28 25 29 23 25 23 23 25 22 21 21 21 22 20 24 20 19 23 23 26 26 25 25 25 25 24 25 25 25 24 24 23 23 23 23 23 23 24 25 25 25 25 25 26 26 25 24 23 23 24 24 25 26 26 26 27 27 28 27 27 27 27 27 28 28 28 27 28 28 28 28 30 29 30
27 36 26 33 33 31 24 25 26 26 23 23 22 20 23 26 28 29 27 26 22 20 19 20 19 20 22 28 25 25 26 26 26 26 26 25 25 25 24 25 24 23 23 23 22 22 22 22 22 23 25 25 25 25 25 26 25 25 24 24 24 23 24 24 25 25 26 26 26 25 25 26 26 26 26 26 26 25 26 26 27 27 27 27 27 28
29 33 27 27 26 26 27 31 31 31 29 27 24 24 24 23 23 21 21 27 25 22 21 20 19 22 35 28 27 26 26 27 27 26 25 25 25 25 25 24 23 23 22 21 21 20 21 21 21 22 24 25 25 25 23 24 24 24 23 23 23 24 24 24 25 26 26 26 26 25 24 24 24 25 25 26 25 24 24 24 25 26 25 25 25 25
33 36 31 27 27 28 29 33 32 30 31 29 26 26 28 26 25 23 21 22 25 25 30 27 25 24 37 29 28 27 27 26 27 26 25 25 25 24 24 23 23 22 21 21 20 20 20 21 21 21 22 24 25 25 24 24 24 24 23 22 22 22 22 24 25 25 25 25 25 24 24 23 23 23 23 24 25 24 24 24 24 24 24 24 24 24
35 27 28 29 30 32 31 35 34 33 33 33 34 34 33 29 30 29 26 30 28 28 26 26 24 28 34 32 28 27 28 28 27 26 25 24 23 23 21 21 20 20 20 21 21 20 20 21 20 20 22 23 25 25 25 24 23 24 24 23 22 21 22 23 24 24 24 23 23 24 23 22 23 22 22 22 24 24 25 25 25 25 24 24 24 23
30 31 30 27 26 28 31 31 32 32 35 29 31 33 34 32 32 33 32 28 23 26 26 23 20 23 34 32 30 29 28 27 25 25 25 23 22 21 19 19 19 18 18 17 19 18 17 18 19 19 21 22 23 24 25 25 24 23 23 22 21 21 23 24 23 23 23 22 21 22 22 21 21 22 22 23 24 24 25 25 25 25 24 24 23 23
34 31 30 24 21 20 18 18 20 21 25 30 31 31 32 32 32 30 28 29 25 27 26 24 22 24 33 34 30 29 28 26 26 24 22 23 21 20 20 20 18 18 17 17 19 17 17 18 18 17 18 20 21 24 25 24 23 21 22 21 21 20 22 23 23 23 22 22 22 23 22 21 21 21 22 23 24 24 24 25 26 26 26 25 24 24
31 33 33 30 26 24 24 27 33 34 31 29 30 31 31 32 32 30 29 27 24 25 25 26 27 27 29 28 28 33 31 28 26 25 23 22 21 21 20 20 19 18 19 17 19 20 19 17 15 18 19 18 20 22 24 24 23 20 20 20 19 18 20 22 22 22 20 20 19 22 22 22 22 22 23 23 24 24 24 24 25 25 26 26 26 25
31 30 30 31 30 30 30 30 31 31 30 29 28 28 29 29 30 28 26 23 26 24 20 25 25 26 25 25 25 27 28 27 25 24 23 23 23 21 18 17 19 16 17 19 17 18 19 19 19 18 18 18 19 21 22 23 22 21 20 20 19 17 18 22 20 20 20 20 19 19 21 22 21 22 24 24 25 25 25 25 25 25 25 27 27 27
29 26 28 29 29 29 29 28 28 27 27 27 26 26 25 26 27 26 26 26 26 23 19 22 25 26 25 24 25 27 27 27 24 23 21 21 22 21 19 16 15 13 14 16 16 16 17 17 18 18 18 19 18 19 21 22 22 21 19 20 19 16 16 18 19 18 18 17 17 19 21 22 22 22 22 24 25 26 26 25 25 25 26 26 26 27
28 24 27 27 26 26 26 27 27 25 24 24 24 24 23 23 22 23 22 22 22 22 23 23 23 23 22 22 25 23 25 25 21 22 23 22 21 21 20 16 14 12 13 12 15 16 17 17 18 18 18 19 18 19 20 21 21 21 19 20 19 16 16 18 18 18 17 16 16 17 19 20 20 20 22 24 25 26 25 25 26 26 26 26 26 26
27 22 27 24 23 23 25 26 26 25 23 21 22 21 21 21 20 21 20 20 21 19 20 19 19 20 24 22 19 17 17 20 23 13 18 16 20 22 20 18 16 13 12 12 15 16 16 18 18 18 18 18 18 19 20 22 22 22 19 19 19 16 15 16 17 18 16 16 16 17 17 18 18 20 22 24 25 28 27 26 26 27 27 27 27 26
28 23 26 23 21 20 22 22 22 22 19 18 18 17 17 17 16 17 18 19 18 18 19 18 18 16 21 21 19 15 13 13 12 11 10 13 15 20 21 20 17 14 11 10 12 16 17 17 17 16 17 17 18 18 19 21 22 21 19 18 17 16 15 15 17 17 17 16 16 17 17 18 19 20 22 25 28 28 28 27 26 26 26 26 26 26
27 25 22 21 19 18 20 21 19 17 17 15 16 15 16 17 17 17 17 18 17 16 15 14 11 26 25 21 21 18 12 8 11 8 10 11 13 18 20 21 19 15 11 9 11 14 16 16 16 17 17 17 17 18 18 20 21 21 20 19 17 15 15 15 16 16 17 17 16 16 17 18 20 20 22 24 28 28 27 26 26 26 26 25 25 25
27 24 21 22 17 16 18 17 16 13 9 9 16 20 14 11 10 7 5 7 11 17 19 22 24 24 19 14 13 11 7 8 9 12 14 12 13 16 20 21 20 15 11 11 13 14 16 17 17 17 18 18 18 16 18 21 21 20 19 17 16 15 14 15 16 16 17 18 18 16 16 17 21 19 20 23 26 27 25 25 24 23 23 23 24 25
22 22 19 20 17 16 14 13 12 8 8 13 25 27 23 21 20 18 16 17 22 24 24 23 22 21 20 14 11 8 10 9 8 9 12 15 18 18 17 18 20 16 9 9 11 10 14 16 18 18 18 16 16 17 19 20 19 18 17 17 16 15 15 15 16 17 17 16 16 17 18 19 18 18 17 21 24 25 24 22 22 22 20 20 20 23
19 18 17 16 16 14 14 13 7 3 13 12 11 16 24 22 20 18 17 19 22 23 24 23 22 20 20 17 13 13 13 10 14 16 16 17 20 20 19 18 19 15 8 8 9 12 12 12 12 13 14 17 18 18 18 17 17 16 17 17 17 16 17 17 17 16 15 16 18 16 16 17 17 17 17 18 22 23 22 21 20 18 17 17 17 21
20 20 17 14 16 12 10 10 10 10 9 10 7 6 16 11 16 17 14 13 22 22 23 22 22 21 17 18 19 18 20 21 20 18 19 20 23 23 22 20 20 17 10 10 11 11 11 12 13 14 17 16 16 14 15 14 16 17 17 18 20 19 17 17 17 16 14 16 14 15 15 15 15 15 16 17 21 22 20 18 17 16 15 17 18 20
21 19 18 15 10 13 9 7 6 4 3 4 12 17 18 15 15 17 17 16 22 18 19 20 22 17 21 21 21 23 23 19 15 14 11 15 15 21 21 24 23 20 15 13 12 14 15 16 15 15 15 13 13 13 14 14 15 15 16 17 17 18 17 16 15 13 15 13 15 13 15 15 15 15 16 17 20 19 17 15 14 13 14 14 16 18
20 20 20 14 13 10 11 9 8 5 5 13 14 16 17 16 19 20 18 11 18 17 16 19 19 22 22 20 20 23 18 12 8 9 7 8 13 14 18 20 20 19 17 14 13 13 13 13 14 13 14 13 14 13 12 14 15 16 16 17 16 16 16 14 12 13 13 12 11 11 14 14 14 14 15 17 17 15 14 13 12 12 13 14 16 17
19 19 18 16 14 13 11 9 7 9 9 14 15 15 14 19 22 18 4 3 14 15 14 18 17 19 18 17 17 17 14 7 9 5 5 6 8 10 12 12 15 16 14 13 13 14 13 13 12 13 14 13 12 13 13 14 16 16 15 15 15 14 15 14 12 11 10 10 11 14 14 14 14 14 15 16 15 13 11 11 10 11 12 13 13 13
16 14 17 12 13 14 16 12 11 12 14 17 14 13 15 18 15 5 3 5 14 16 13 14 17 15 11 9 12 14 16 9 6 6 7 8 12 13 12 12 12 12 12 11 12 18 13 12 11 11 11 10 10 12 14 15 14 14 14 12 13 14 12 11 10 10 10 10 12 13 12 12 12 13 14 13 11 10 9 9 9 10 11 11 11 11
7 8 8 12 13 11 10 9 9 10 17 16 17 17 15 11 6 6 10 11 11 10 11 11 14 8 9 9 9 8 7 6 9 11 14 15 15 14 14 14 13 13 12 15 17 16 12 11 11 11 11 11 11 13 14 15 15 14 13 12 12 12 9 9 8 8 12 12 12 12 12 12 12 11 10 10 9 8 7 8 8 8 8 7 8 11
4 6 4 6 11 13 13 10 9 4 13 17 16 12 12 9 11 9 8 12 12 11 11 12 9 7 8 9 10 11 10 11 12 13 13 14 14 13 12 12 14 14 14 13 11 10 11 9 9 9 9 10 12 12 13 14 13 13 13 11 11 9 9 9 9 10 10 11 11 11 10 10 10 9 8 7 7 7 6 6 6 7 7 7 8 9
16 6 5 6 9 4 5 6 5 9 12 15 14 8 13 14 13 11 15 9 11 12 12 7 8 8 9 9 9 9 10 10 11 12 12 11 11 11 14 14 13 12 10 9 9 9 14 9 9 9 9 9 11 11 12 13 12 12 11 9 7 9 11 11 10 11 11 10 10 8 8 8 7 6 6 5 5 4 4 4 4 4 4 4 5 5
14 10 9 4 9 7 3 4 11 11 12 12 13 13 10 12 14 13 13 12 12 11 11 9 8 8 9 10 10 10 10 10 10 10 10 11 13 14 12 10 9 8 7 7 7 11 12 8 9 8 9 7 8 10 10 11 10 9 8 7 9 10 9 9 9 8 7 7 6 6 5 5 5 5 5 4 3 2 1 2 3 1 2 4 4 4
11 13 12 12 8 11 12 12 13 12 12 13 13 13 12 12 13 14 13 11 12 11 9 9 9 8 8 10 10 10 10 9 10 11 13 13 11 9 8 7 7 7 7 8 9 8 9 8 8 8 7 7 6 5 8 8 7 5 4 5 5 6 5 5 4 3 3 3 2 2 3 2 2 2 2 2 1 1 -0 0 0 -0 -0 -0 1 3
10 10 11 8 7 6 5 5 8 9 8 9 9 11 15 14 13 10 9 9 10 9 9 9 9 9 9 11 11 10 11 13 12 11 9 8 6 5 5 5 5 5 5 7 5 8 6 6 6 5 5 4 4 4 4 3 2 2 1 2 2 2 2 0 -0 -1 -1 -1 -1 -1 -1 -1 -2 -2 -1 -1 -1 -2 -2 -1 -1 -0 1 1 1 3
8 10 8 8 7 6 6 6 7 8 9 9 9 9 10 11 11 10 11 10 9 9 9 9 12 12 13 14 12 10 9 7 6 6 5 4 4 3 4 4 4 3 4 3 4 6 4 4 3 2 1 -0 -1 -1 -1 -1 -1 -1 -2 -2 -2 -2 -3 -4 -4 -5 -4 -4 -4 -5 -4 -4 -3 -3 -4 -4 -3 -4 -4 -3 -2 -2 -1 -0 0 1
10 11 8 8 7 7 8 8 9 10 10 11 12 12 12 12 12 11 11 10 9 9 9 9 9 9 8 7 6 5 5 5 4 3 3 3 2 3 2 2 2 2 2 2 2 3 1 -0 -1 -2 -3 -4 -4 -3 -3 -3 -3 -4 -5 -4 -4 -4 -5 -7 -6 -6 -6 -6 -6 -6 -6 -6 -5 -6 -6 -5 -5 -4 -4 -4 -4 -3 -2 -0 -0 1
10 10 8 9 8 8 8 8 9 8 9 8 10 11 11 11 11 11 10 9 9 8 4 4 3 3 3 3 2 2 4 2 2 1 2 1 -0 -0 -0 -1 -0 0 0 -0 -0 -1 -3 -3 -4 -5 -5 -6 -6 -5 -5 -5 -5 -5 -5 -5 -5 -5 -6 -7 -7 -7 -8 -7 -8 -7 -7 -7 -7 -6 -7 -7 -7 -6 -5 1 9 5 -1 -1 7 12
10 10 9 10 10 8 9 10 11 10 9 9 10 13 11 9 9 9 9 8 4 3 1 1 2 1 1 1 -0 -0 2 -0 -0 -1 -0 -1 -2 -3 -3 -3 -3 -3 -4 -3 -4 -5 -5 -6 -6 -6 -7 -7 -6 -6 -6 -6 -6 -6 -6 -5 -5 -5 -6 -6 -8 -9 -9 -8 -9 -9 -8 -8 -8 -7 -7 -7 -7 -6 -6 -7 -5 8 12 13 13 15